Location: Bednik
(45.3500°N, 16.3833°E)
Time: 21:53:45
(UTC+00:00)

Cosmos 2218 Rocket - Pass Details

Date: 08 August 2020
Orbit: 956 x 1005 km, 82.9° (Epoch: 21 September)

Event Time Altitude Azimuth Distance (km) Brightness Sun altitude
Rises 18:44:43 0° 189° (S) 3,646 6.8 -6.0°
Reaches altitude 10° 18:47:13 10° 190° (S) 2,697 6.1 -6.3°
Maximum altitude 18:53:23 82° 278° (W) 975 4.1 -7.3°
Drops below altitude 10° 18:59:35 10° 7° (N) 2,698 6.7 -8.2°
Sets 19:02:05 0° 8° (N) 3,648 7.4 -8.6°
